This demonstration page uses our WeatherBlox Daily Observations layout. Learn more.

Left ArrowRight Arrow

Hourly Observations for December 8, 2019

Temp ( °F °C ) Dew Point ( °F °C ) Humidity (%) Winds ( mph kmh ) Pressure ( in mb ) Visibility ( mi km ) Precip ( " mm )
12:56 am 00:56 Clear 36 2.2 32 0 86 86 SW 10 17 29.84 1010 10 16 0.00 0.00
1:56 am 01:56 Clear 34 1.1 31 -0.6 89 89 SW 6 9 29.83 1010 10 16 0.00 0.00
2:56 am 02:56 Clear 33 0.6 31 -0.6 92 92 SW 6 9 29.83 1010 10 16 0.00 0.00
3:56 am 03:56 Clear 34 1.1 32 0 92 92 W 5 7 29.82 1010 10 16 0.00 0.00
4:56 am 04:56 Clear 34 1.1 32 0 92 92 W 7 11 29.82 1010 10 16 0.00 0.00
5:56 am 05:56 Clear 35 1.7 31 -0.6 85 85 WNW 7 11 29.82 1010 10 16 0.00 0.00
6:56 am 06:56 Clear 34 1.1 31 -0.6 89 89 VRB 3 6 29.82 1010 10 16 0.00 0.00
7:56 am 07:56 Sunny 35 1.7 32 0 89 89 NW 10 17 29.82 1010 10 16 0.00 0.00
8:56 am 08:56 Sunny 34 1.1 30 -1.1 85 85 NW 8 13 29.82 1010 10 16 0.00 0.00
9:56 am 09:56 Sunny 40 4.4 32 0 73 73 W 5 7 29.81 1010 10 16 0.00 0.00
10:56 am 10:56 Sunny 46 7.8 34 1.1 63 63 NW 6 9 29.79 1009 10 16 0.00 0.00
11:56 am 11:56 Sunny 49 9.4 33 0.6 55 55 NW 5 7 29.76 1008 10 16 0.00 0.00
12:56 pm 12:56 Sunny 52 11.1 33 0.6 49 49 W 5 7 29.73 1007 10 16 0.00 0.00
1:56 pm 13:56 Sunny 52 11.1 34 1.1 50 50 Calm 29.70 1006 10 16 0.00 0.00
2:56 pm 14:56 Sunny 54 12.2 37 2.8 53 53 WSW 5 7 29.69 1005 10 16 0.00 0.00
3:56 pm 15:56 Sunny 52 11.1 35 1.7 53 53 SW 5 7 29.67 1005 10 16 0.00 0.00
4:56 pm 16:56 Sunny 48 8.9 36 2.2 63 63 S 3 6 29.66 1004 10 16 0.00 0.00
5:56 pm 17:56 Clear 44 6.7 35 1.7 71 71 SE 3 6 29.66 1004 10 16 0.00 0.00
6:56 pm 18:56 Clear 44 6.7 34 1.1 68 68 Calm 29.66 1005 10 16 0.00 0.00
7:56 pm 19:56 Clear 40 4.4 33 0.6 77 77 S 6 9 29.65 1004 10 16 0.00 0.00
8:56 pm 20:56 Clear 41 5 34 1.1 76 76 SW 3 6 29.64 1004 10 16 0.00 0.00
9:56 pm 21:56 Clear 39 3.9 34 1.1 82 82 SSW 6 9 29.62 1003 10 16 0.00 0.00
10:56 pm 22:56 Clear 38 3.3 34 1.1 86 86 SW 5 7 29.60 1002 10 16 0.00 0.00
11:56 pm 23:56 Clear 37 2.8 33 0.6 86 86 Calm 29.59 1002 10 16 0.00 0.00

Powered by AerisWeather